sat.trackr.live / text

‹ back to catalog

STARLINK-32617

NORAD 62076 · 2024-217V

PAYLOAD ACTIVE UNKNOWN

§ Identity

Operator
Country
US
Launch date
2024-11-24
Launch site
AFWTR
Launch vehicle
Mass (kg)
RCS (m²)

Purposes: comms

External: N2YO · Heavens-Above · Gunter

§ Orbital elements

Epoch: 2026-05-24T20:26:35.163168Z

Period
94.11 min
Inclination
53.1593°
Eccentricity
0.0001189
Mean motion
15.30203395 rev/d
Perigee alt
474.4 km
Apogee alt
476.0 km
Semi-major
6,853.3 km
B*
6.7535e-4
RAAN
187.2362°
Arg perigee
84.1961°
Mean anomaly
275.9176°
Rev number
8,526

§ Raw data

STARLINK-326171 62076U 24217V   26144.85179587  .00019698  00000+0  67535-3 0  99952 62076  53.1593 187.2362 0001189  84.1961 275.9176 15.30203395 85265

JSON: /api/v1/satellites/62076 · /tle

For live sub-satellite position, see the globe view (requires WebGL).

§ Visibility from observer

Set your observer location to see the next 7 days of passes ≥ 10°. The values pass through the URL so the page stays shareable.

No JS? Fill the form by hand. The geolocation button needs JavaScript.